{"data":{"norad_id":53544,"epoch":"2026-09-20T13:50:36.053088Z","epoch_age_seconds":71569,"freshness":"FRESH","line1":"1 53544U 22101T   26263.57680617 -.00000149  00000+0  67280-5 0  9998","line2":"2 53544  53.1566 253.2466 0001027 109.0090 251.1024 15.34388985226612","mean_motion":15.34388985,"eccentricity":0.0001027,"inclination_deg":53.1566,"raan_deg":253.2466,"arg_perigee_deg":109.009,"mean_anomaly_deg":251.1024,"bstar":6.728e-6,"rev_number":22661,"period_min":93.848431791238,"perigee_km":462.03342164929,"apogee_km":463.43853695924,"semimajor_km":6840.8729793043,"source":"CELESTRAK","updated_at":"2026-09-21T09:00:32.922593Z"}}